CW9638 Weather Reports


Display with metric or nautical units.
time (UTC)temp
F
wind
direction
speed
MPH
gust
MPH
rain 1hr
in
rain 24hr
in
rain mn
in
humidity
%
barometer
mb
20260906180008 88 191 3.0 8.0 0.00 0.00 0.00 69 1013.0
20260906175504 88 172 3.0 7.0 0.00 0.00 0.00 70 1013.0
20260906175003 88 205 3.0 7.0 0.00 0.00 0.00 69 1013.1
20260906174504 88 154 1.0 7.0 0.00 0.00 0.00 69 1013.1
20260906174003 88 151 4.0 8.0 0.00 0.00 0.00 70 1013.1
20260906173503 88 198 5.0 8.0 0.00 0.00 0.00 69 1013.3
20260906173004 87 206 2.0 7.0 0.00 0.00 0.00 71 1013.3
20260906172501 87 192 2.0 8.0 0.00 0.00 0.00 72 1013.3
20260906172102 87 168 4.0 8.0 0.00 0.00 0.00 72 1013.6
20260906171558 86 154 3.0 7.0 0.00 0.00 0.00 74 1013.6
20260906171057 86 150 3.0 7.0 0.00 0.00 0.00 73 1013.6
20260906170556 85 192 2.0 9.0 0.00 0.00 0.00 76 1013.6
20260906170055 85 167 3.0 9.0 0.00 0.00 0.00 76 1013.6
20260906165554 85 153 3.0 6.0 0.00 0.00 0.00 76 1013.6
20260906165055 85 133 2.0 9.0 0.00 0.00 0.00 77 1014.1
20260906164553 85 149 5.0 9.0 0.00 0.00 0.00 76 1014.1
20260906164051 84 154 4.0 8.0 0.00 0.00 0.00 77 1014.1
20260906163552 84 140 3.0 7.0 0.00 0.00 0.00 78 1014.1
20260906163050 84 173 4.0 6.0 0.00 0.00 0.00 77 1014.1
20260906162549 83 152 0.0 5.0 0.00 0.00 0.00 79 1014.1
20260906162047 83 155 2.0 4.0 0.00 0.00 0.00 79 1014.1
20260906161549 83 148 0.0 3.0 0.00 0.00 0.00 80 1014.1
20260906161044 83 149 0.0 3.0 0.00 0.00 0.00 80 1014.1
20260906160542 83 159 0.0 0.0 0.00 0.00 0.00 82 1014.3
20260906160041 82 159 0.0 1.0 0.00 0.00 0.00 82 1014.3
20260906155540 82 167 0.0 1.0 0.00 0.00 0.00 82 1014.3
20260906155040 82 169 0.0 0.0 0.00 0.00 0.00 83 1014.2
20260906154539 82 169 0.0 0.0 0.00 0.00 0.00 83 1014.2
20260906154039 82 169 0.0 0.0 0.00 0.00 0.00 83 1014.2
20260906153539 82 194 0.0 0.0 0.00 0.00 0.00 83 1014.1
20260906153038 82 180 0.0 0.0 0.00 0.00 0.00 82 1014.1
20260906152537 82 190 0.0 2.0 0.00 0.00 0.00 82 1014.1
20260906152037 82 152 0.0 4.0 0.00 0.00 0.00 81 1013.6
20260906151538 82 148 1.0 5.0 0.00 0.00 0.00 81 1013.6
20260906151037 82 136 1.0 5.0 0.00 0.00 0.00 81 1013.6
20260906150537 82 132 1.0 5.0 0.00 0.00 0.00 82 1013.6
20260906150046 82 144 1.0 5.0 0.00 0.00 0.00 82 1013.6
20260906145536 82 143 2.0 6.0 0.00 0.00 0.00 83 1013.6
20260906145035 82 139 0.0 7.0 0.00 0.00 0.00 83 1013.5
20260906144535 81 148 1.0 9.0 0.00 0.00 0.00 84 1013.5
20260906144033 81 139 3.0 9.0 0.00 0.00 0.00 84 1013.5
20260906143534 81 140 2.0 6.0 0.00 0.00 0.00 85 1013.6
20260906143032 81 148 2.0 6.0 0.00 0.00 0.00 85 1013.6
20260906142531 80 138 2.0 7.0 0.00 0.00 0.00 85 1013.6
20260906142031 80 141 2.0 7.0 0.00 0.00 0.00 85 1013.6
20260906141530 80 142 2.0 7.0 0.00 0.00 0.00 86 1013.6
20260906141030 80 142 2.0 7.0 0.00 0.00 0.00 87 1013.6
20260906140532 80 175 2.0 7.0 0.00 0.00 0.00 87 1013.7
20260906140036 79 153 2.0 7.0 0.00 0.00 0.00 88 1013.7
20260906135532 79 140 2.0 5.0 0.00 0.00 0.00 89 1013.7
20260906135030 79 140 1.0 5.0 0.00 0.00 0.00 89 1013.9
20260906134529 79 136 0.0 5.0 0.00 0.00 0.00 90 1013.9
20260906134029 78 141 1.0 4.0 0.00 0.00 0.00 90 1013.9
20260906133529 78 134 1.0 6.0 0.00 0.00 0.00 91 1013.8
20260906133028 78 141 1.0 5.0 0.00 0.00 0.00 92 1013.8
20260906132529 77 137 0.0 3.0 0.00 0.00 0.00 94 1013.8
20260906132027 77 135 0.0 3.0 0.00 0.00 0.00 94 1013.7
20260906131527 77 130 0.0 3.0 0.00 0.00 0.00 94 1013.7
20260906131030 76 134 0.0 3.0 0.00 0.00 0.00 95 1013.7
20260906130526 76 133 0.0 0.0 0.00 0.00 0.00 95 1013.7
20260906130029 75 133 0.0 0.0 0.00 0.00 0.00 95 1013.7
20260906125524 75 135 0.0 0.0 0.00 0.00 0.00 95 1013.7
20260906125023 74 135 0.0 0.0 0.00 0.00 0.00 95 1013.3
20260906124522 74 135 0.0 0.0 0.00 0.00 0.00 95 1013.3
20260906124022 74 135 0.0 0.0 0.00 0.00 0.00 95 1013.3
20260906123522 74 135 0.0 0.0 0.00 0.00 0.00 94 1013.2
20260906123030 74 135 0.0 0.0 0.00 0.00 0.00 94 1013.2
20260906122521 74 135 0.0 0.0 0.00 0.00 0.00 94 1013.2
20260906122019 73 135 0.0 0.0 0.00 0.00 0.00 94 1013.1
20260906121530 73 135 0.0 0.0 0.00 0.00 0.00 94 1013.1
20260906121016 73 135 0.0 0.0 0.00 0.00 0.00 94 1013.1
20260906120515 73 135 0.0 0.0 0.00 0.00 0.00 94 1013.0
20260906120014 73 135 0.0 0.0 0.00 0.00 0.00 94 1013.0
20260906115514 73 135 0.0 0.0 0.00 0.00 0.00 94 1013.0
20260906115014 73 135 0.0 0.0 0.00 0.00 0.00 94 1012.7
20260906114517 73 135 0.0 0.0 0.00 0.00 0.00 94 1012.7
20260906114013 73 135 0.0 0.0 0.00 0.00 0.00 94 1012.7
20260906113513 73 135 0.0 0.0 0.00 0.00 0.00 94 1012.7
20260906113035 73 135 0.0 0.0 0.00 0.00 0.00 94 1012.7
20260906112513 73 135 0.0 0.0 0.00 0.00 0.00 94 1012.7
20260906112013 73 135 0.0 0.0 0.00 0.00 0.00 94 1012.8
20260906111514 73 135 0.0 0.0 0.00 0.00 0.00 94 1012.8
20260906111012 73 135 0.0 0.0 0.00 0.00 0.00 94 1012.8
20260906110513 73 135 0.0 0.0 0.00 0.00 0.00 94 1012.9
20260906110012 73 135 0.0 0.0 0.00 0.00 0.00 94 1012.9
20260906105512 73 135 0.0 0.0 0.00 0.00 0.00 93 1012.9
20260906105012 73 135 0.0 0.0 0.00 0.00 0.00 93 1012.6
20260906104515 73 135 0.0 0.0 0.00 0.00 0.00 93 1012.6
20260906104011 73 135 0.0 0.0 0.00 0.00 0.00 93 1012.6
20260906103510 73 135 0.0 0.0 0.00 0.00 0.00 93 1012.5
20260906103011 73 135 0.0 0.0 0.00 0.00 0.00 93 1012.5
20260906102512 73 135 0.0 0.0 0.00 0.00 0.00 93 1012.5
20260906102011 73 135 0.0 0.0 0.00 0.00 0.00 93 1012.3
20260906101511 73 135 0.0 0.0 0.00 0.00 0.00 93 1012.3
20260906101010 73 135 0.0 0.0 0.00 0.00 0.00 93 1012.3
20260906100510 73 135 0.0 0.0 0.00 0.00 0.00 93 1012.2
20260906100016 73 135 0.0 0.0 0.00 0.00 0.00 92 1012.2
20260906095509 73 135 0.0 0.0 0.00 0.00 0.00 92 1012.2
20260906095009 73 135 0.0 0.0 0.00 0.00 0.00 92 1012.4
20260906094509 74 135 0.0 0.0 0.00 0.00 0.00 92 1012.4
20260906094008 74 135 0.0 0.0 0.00 0.00 0.00 92 1012.4
20260906093509 74 135 0.0 0.0 0.00 0.00 0.00 92 1012.4
20260906093009 74 135 0.0 0.0 0.00 0.00 0.00 92 1012.4
20260906092508 74 135 0.0 0.0 0.00 0.00 0.00 92 1012.4
20260906092011 74 135 0.0 0.0 0.00 0.00 0.00 91 1012.3
20260906091515 74 135 0.0 0.0 0.00 0.00 0.00 91 1012.3
20260906091006 74 135 0.0 0.0 0.00 0.00 0.00 91 1012.3
20260906090505 74 135 0.0 0.0 0.00 0.00 0.00 90 1012.4
20260906090006 74 135 0.0 0.0 0.00 0.00 0.00 89 1012.4
20260906085505 74 135 0.0 0.0 0.00 0.00 0.00 89 1012.4
20260906085003 75 135 0.0 0.0 0.00 0.00 0.00 89 1012.3
20260906084502 75 135 0.0 0.0 0.00 0.00 0.00 89 1012.3
20260906084005 75 135 0.0 0.0 0.00 0.00 0.00 89 1012.3
20260906083600 76 135 0.0 0.0 0.00 0.00 0.00 88 1012.1
20260906083059 76 135 0.0 0.0 0.00 0.00 0.00 88 1012.1
20260906082559 76 135 0.0 0.0 0.00 0.00 0.00 88 1012.1
20260906082059 76 135 0.0 1.0 0.00 0.00 0.00 88 1012.0
20260906081612 76 135 0.0 1.0 0.00 0.00 0.00 88 1012.0
20260906081058 77 136 0.0 2.0 0.00 0.00 0.00 88 1012.0
20260906080558 77 135 0.0 3.0 0.00 0.00 0.00 88 1012.0
20260906080104 77 135 1.0 4.0 0.00 0.00 0.00 88 1012.0
20260906075558 77 135 1.0 4.0 0.00 0.00 0.00 88 1012.0
20260906075057 77 155 0.0 3.0 0.00 0.00 0.00 88 1012.1
20260906074612 77 133 0.0 0.0 0.00 0.00 0.00 88 1012.1
20260906074057 77 134 0.0 2.0 0.00 0.00 0.00 88 1012.1
20260906073557 77 134 0.0 2.0 0.00 0.00 0.00 88 1012.1
20260906073100 77 134 0.0 3.0 0.00 0.00 0.00 88 1012.1
20260906072557 77 134 0.0 3.0 0.00 0.00 0.00 88 1012.1
20260906072101 77 134 0.0 0.0 0.00 0.00 0.00 89 1012.1
20260906071558 77 136 0.0 0.0 0.00 0.00 0.00 89 1012.1
20260906071056 76 138 0.0 0.0 0.00 0.00 0.00 89 1012.1
20260906070556 76 134 0.0 0.0 0.00 0.00 0.00 89 1012.4
20260906070056 76 134 0.0 0.0 0.00 0.00 0.00 89 1012.4
20260906065557 76 136 0.0 0.0 0.00 0.00 0.00 89 1012.4
20260906065054 76 136 0.0 0.0 0.00 0.00 0.00 88 1012.6
20260906064554 76 136 0.0 0.0 0.00 0.00 0.00 87 1012.6
20260906064053 77 136 0.0 0.0 0.00 0.00 0.00 87 1012.6
20260906063551 77 136 0.0 0.0 0.00 0.00 0.00 86 1012.5
20260906063051 78 136 0.0 0.0 0.00 0.00 0.00 85 1012.5
20260906062549 78 136 0.0 0.0 0.00 0.00 0.00 85 1012.5
20260906062053 78 136 0.0 0.0 0.00 0.00 0.00 85 1012.5
20260906061555 78 136 0.0 0.0 0.00 0.00 0.00 85 1012.5
20260906061046 79 136 0.0 0.0 0.00 0.00 0.00 85 1012.5
20260906060546 79 136 0.0 0.0 0.00 0.00 0.00 84 1012.5
20260906060045 79 136 0.0 0.0 0.00 0.00 0.00 84 1012.5
20260906055543 80 135 0.0 0.0 0.00 0.00 0.00 83 1012.5
20260906055043 80 139 0.0 0.0 0.00 0.00 0.00 83 1012.6
20260906054542 80 146 0.0 0.0 0.00 0.00 0.00 83 1012.6
20260906054041 80 142 0.0 3.0 0.00 0.00 0.00 83 1012.6
20260906053540 80 135 0.0 3.0 0.00 0.00 0.00 83 1012.5
20260906053040 80 134 0.0 2.0 0.00 0.00 0.00 82 1012.5
20260906052540 80 133 0.0 3.0 0.00 0.00 0.00 82 1012.5
20260906052039 80 132 0.0 2.0 0.00 0.00 0.00 82 1012.5
20260906051546 80 133 0.0 2.0 0.00 0.00 0.00 82 1012.5
20260906051038 81 133 0.0 4.0 0.00 0.00 0.00 82 1012.5
20260906050541 81 132 0.0 4.0 0.00 0.00 0.00 82 1012.4
20260906050045 81 136 0.0 2.0 0.00 0.00 0.00 82 1012.4
20260906045540 81 133 0.0 1.0 0.00 0.00 0.00 82 1012.4
20260906045037 81 130 0.0 1.0 0.00 0.00 0.00 82 1012.3
20260906044539 81 134 0.0 3.0 0.00 0.00 0.00 82 1012.3
20260906044037 81 134 0.0 3.0 0.00 0.00 0.00 82 1012.3
20260906043537 81 132 0.0 0.0 0.00 0.00 0.00 82 1012.4
20260906043037 81 132 0.0 1.0 0.00 0.00 0.00 82 1012.4
20260906042536 81 125 0.0 1.0 0.00 0.00 0.00 82 1012.4
20260906042036 81 131 0.0 0.0 0.00 0.00 0.00 82 1012.4
20260906041541 81 131 0.0 0.0 0.00 0.00 0.00 82 1012.4
20260906041036 81 130 0.0 2.0 0.00 0.00 0.00 82 1012.4
20260906040535 81 130 0.0 2.0 0.00 0.00 0.00 82 1012.4
20260906040037 81 132 0.0 1.0 0.00 0.00 0.00 82 1012.4
20260906035535 81 132 0.0 2.0 0.00 0.00 0.00 82 1012.4
20260906035035 81 131 0.0 1.0 0.00 0.00 0.00 82 1012.3
20260906034536 82 132 0.0 1.0 0.00 0.00 0.00 82 1012.3
20260906034035 82 132 0.0 1.0 0.00 0.00 0.00 82 1012.3
20260906033535 82 132 0.0 1.0 0.00 0.00 0.00 82 1012.2
20260906033044 82 132 0.0 0.0 0.00 0.00 0.00 82 1012.2
20260906032534 82 132 0.0 0.0 0.00 0.00 0.00 82 1012.2
20260906032037 82 132 0.0 1.0 0.00 0.00 0.00 81 1011.8
20260906031537 82 132 0.0 1.0 0.00 0.00 0.00 81 1011.8
20260906031034 82 132 0.0 1.0 0.00 0.00 0.00 81 1011.8
20260906030534 82 130 0.0 1.0 0.00 0.00 0.00 81 1011.5
20260906030035 82 130 0.0 1.0 0.00 0.00 0.00 81 1011.5
20260906025533 82 132 0.0 2.0 0.00 0.00 0.00 81 1011.5
20260906025035 83 131 0.0 1.0 0.00 0.00 0.00 81 1011.4
20260906024534 83 131 0.0 1.0 0.00 0.00 0.00 81 1011.4
20260906024033 83 131 0.0 1.0 0.00 0.00 0.00 81 1011.4
20260906023535 83 129 0.0 1.0 0.00 0.00 0.00 81 1011.3
20260906023036 83 130 0.0 1.0 0.00 0.00 0.00 81 1011.3
20260906022534 83 131 0.0 1.0 0.00 0.00 0.00 80 1011.3
20260906022033 83 130 0.0 1.0 0.00 0.00 0.00 80 1010.9
20260906021533 83 130 0.0 1.0 0.00 0.00 0.00 80 1010.9
20260906021032 83 129 0.0 1.0 0.00 0.00 0.00 80 1010.9
20260906020532 83 130 0.0 1.0 0.00 0.00 0.00 80 1010.7
20260906020033 83 127 0.0 1.0 0.00 0.00 0.00 80 1010.7
20260906015532 83 127 0.0 1.0 0.00 0.00 0.00 80 1010.7
20260906015032 84 126 0.0 1.0 0.00 0.00 0.00 80 1010.5
20260906014533 84 126 0.0 1.0 0.00 0.00 0.00 79 1010.5
20260906014031 84 126 0.0 0.0 0.00 0.00 0.00 79 1010.5
20260906013532 84 126 0.0 0.0 0.00 0.00 0.00 78 1010.4
20260906013032 85 126 0.0 0.0 0.00 0.00 0.00 77 1010.4
20260906012535 85 126 0.0 0.0 0.00 0.00 0.00 76 1010.4
20260906012031 85 126 0.0 1.0 0.00 0.00 0.00 76 1010.3
20260906011536 86 126 0.0 2.0 0.00 0.00 0.00 75 1010.3
20260906011031 86 126 1.0 2.0 0.00 0.00 0.00 74 1010.3
20260906010530 87 126 0.0 1.0 0.00 0.00 0.00 74 1010.0
20260906010032 87 126 0.0 1.0 0.00 0.00 0.00 73 1010.0
20260906005530 87 126 0.0 1.0 0.00 0.00 0.00 73 1010.0
20260906005030 87 126 0.0 3.0 0.00 0.00 0.00 72 1009.9
20260906004530 88 126 0.0 3.0 0.00 0.00 0.00 72 1009.9
20260906004030 88 131 0.0 3.0 0.00 0.00 0.00 72 1009.9
20260906003530 88 132 0.0 2.0 0.00 0.00 0.00 71 1010.0
20260906003030 89 132 0.0 2.0 0.00 0.00 0.00 70 1010.0
20260906002529 89 132 0.0 3.0 0.00 0.00 0.00 69 1010.0
20260906002030 90 132 0.0 3.0 0.00 0.00 0.00 69 1010.0
20260906001529 90 132 0.0 3.0 0.00 0.00 0.00 68 1010.0
20260906001029 91 132 1.0 3.0 0.00 0.00 0.00 67 1010.0
20260906000529 91 132 0.0 4.0 0.00 0.00 0.00 67 1010.0
20260906000028 91 131 1.0 4.0 0.00 0.00 0.00 65 1010.0
20260905235528 91 131 2.0 4.0 0.00 0.00 0.00 65 1010.0
20260905235029 92 130 1.0 5.0 0.00 0.00 0.00 64 1010.0
20260905234528 92 128 1.0 5.0 0.00 0.00 0.00 65 1010.0
20260905234028 92 132 1.0 4.0 0.00 0.00 0.00 64 1010.0
20260905233528 92 127 1.0 4.0 0.00 0.00 0.00 64 1009.9
20260905233028 92 144 0.0 5.0 0.00 0.00 0.00 64 1009.9
20260905232528 92 126 0.0 5.0 0.00 0.00 0.00 64 1009.9
20260905232028 92 148 2.0 5.0 0.00 0.00 0.00 64 1009.9
20260905231528 93 130 3.0 6.0 0.00 0.00 0.00 63 1009.9
20260905231027 93 128 3.0 6.0 0.00 0.00 0.00 62 1009.9
20260905230527 93 132 2.0 6.0 0.00 0.00 0.00 63 1009.9
20260905230029 93 142 2.0 7.0 0.00 0.00 0.00 63 1009.9
20260905225526 93 128 3.0 8.0 0.00 0.00 0.00 61 1009.9
20260905225027 93 143 4.0 8.0 0.00 0.00 0.00 61 1009.8
20260905224533 93 189 3.0 8.0 0.00 0.00 0.00 61 1009.8
20260905224027 93 157 4.0 8.0 0.00 0.00 0.00 61 1009.8
20260905223526 93 121 3.0 7.0 0.00 0.00 0.00 62 1009.6
20260905223026 93 156 2.0 6.0 0.00 0.00 0.00 63 1009.6
20260905222526 93 119 1.0 7.0 0.00 0.00 0.00 64 1009.6
20260905222025 93 123 3.0 10.0 0.00 0.00 0.00 63 1009.6
20260905221525 93 129 4.0 10.0 0.00 0.00 0.00 62 1009.6
20260905221033 93 150 4.0 9.0 0.00 0.00 0.00 62 1009.6
20260905220524 93 162 3.0 8.0 0.00 0.00 0.00 62 1009.9
20260905220024 93 129 5.0 9.0 0.00 0.00 0.00 61 1009.9
20260905215525 93 142 3.0 9.0 0.00 0.00 0.00 60 1009.9
20260905215023 93 142 3.0 8.0 0.00 0.00 0.00 61 1009.9
20260905214523 92 158 3.0 8.0 0.00 0.00 0.00 61 1009.9
20260905214023 92 147 2.0 9.0 0.00 0.00 0.00 62 1009.9
20260905213522 92 87 4.0 9.0 0.00 0.00 0.00 60 1010.4
20260905213022 92 124 2.0 8.0 0.00 0.00 0.00 60 1010.4
20260905212525 92 155 4.0 8.0 0.00 0.00 0.00 59 1010.4
20260905212020 92 130 3.0 7.0 0.00 0.00 0.00 61 1010.5
20260905211520 92 133 2.0 9.0 0.00 0.00 0.00 60 1010.5
20260905211020 92 160 3.0 9.0 0.00 0.00 0.00 59 1010.5
20260905210524 92 108 1.0 5.0 0.00 0.00 0.00 60 1010.9
20260905210019 92 65 2.0 5.0 0.00 0.00 0.00 59 1010.9
20260905205518 91 96 1.0 8.0 0.00 0.00 0.00 61 1010.9
20260905205019 91 74 3.0 8.0 0.00 0.00 0.00 59 1011.0
20260905204520 91 111 2.0 8.0 0.00 0.00 0.00 59 1011.0
20260905204018 91 99 2.0 8.0 0.00 0.00 0.00 58 1011.0
20260905203518 91 105 2.0 9.0 0.00 0.00 0.00 59 1011.5
20260905203018 91 91 3.0 9.0 0.00 0.00 0.00 58 1011.5
20260905202519 91 80 5.0 9.0 0.00 0.00 0.00 57 1011.5
20260905202019 91 74 5.0 9.0 0.00 0.00 0.00 59 1012.0
20260905201517 91 67 3.0 10.0 0.00 0.00 0.00 60 1012.0
20260905201020 91 64 4.0 11.0 0.00 0.00 0.00 59 1012.0
20260905200517 91 62 5.0 11.0 0.00 0.00 0.00 59 1012.0
20260905200017 91 61 4.0 10.0 0.00 0.00 0.00 60 1012.0
20260905195516 91 70 4.0 14.0 0.00 0.00 0.00 60 1012.0
20260905195019 91 98 5.0 14.0 0.00 0.00 0.00 60 1012.1
20260905194516 91 71 5.0 14.0 0.00 0.00 0.00 61 1012.1
20260905194017 91 81 3.0 9.0 0.00 0.00 0.00 62 1012.1
20260905193516 90 79 3.0 11.0 0.00 0.00 0.00 62 1012.5
20260905193016 90 56 4.0 8.0 0.00 0.00 0.00 61 1012.5
20260905192516 90 142 2.0 11.0 0.00 0.00 0.00 64 1012.5
20260905192016 90 94 4.0 11.0 0.00 0.00 0.00 64 1012.7
20260905191515 90 109 5.0 10.0 0.00 0.00 0.00 64 1012.7
20260905191015 90 101 4.0 13.0 0.00 0.00 0.00 66 1012.7
20260905190514 89 77 4.0 13.0 0.00 0.00 0.00 66 1013.1
20260905190015 89 47 5.0 12.0 0.00 0.00 0.00 65 1013.1
20260905185515 89 59 6.0 12.0 0.00 0.00 0.00 65 1013.1
20260905185014 89 74 4.0 13.0 0.00 0.00 0.00 64 1013.6
20260905184514 89 38 8.0 15.0 0.00 0.00 0.00 65 1013.6
20260905184014 89 46 9.0 15.0 0.00 0.00 0.00 63 1013.6
20260905183513 89 51 7.0 15.0 0.00 0.00 0.00 65 1013.5
20260905183013 89 59 8.0 16.0 0.00 0.00 0.00 65 1013.5
20260905182513 89 42 7.0 16.0 0.00 0.00 0.00 65 1013.5
20260905182013 90 38 7.0 14.0 0.00 0.00 0.00 65 1013.2
20260905181512 90 35 8.0 14.0 0.00 0.00 0.00 63 1013.2
20260905181012 90 46 8.0 13.0 0.00 0.00 0.00 62 1013.2
20260905180512 91 70 6.0 15.0 0.00 0.00 0.00 62 1013.1